Flag for Austria Weather past 2 weeks in Graz, Styria, Austria

Now
73 °F

Partly sunny.


Feels Like: 77 °F
Forecast: 58 / 72 °F
Wind: 1 mph from North

Location: Graz-Thalerhof-Flughafen

Current Time: Sep 2, 2015 at 11:06:44 AM

Latest Report: Sep 2, 2015 at 10:20 AM


Visibility: N/A

Pressure: 29.98 "Hg

Humidity: 57%

Dew point: 57 °F

Location of GrazLocation

Historic Weather in Graz — Graph

°F

Graz temperature yesterday

Maximum temperature yesterday: 90 °F (at 4:50 PM)
Minimum temperature yesterday: 57 °F (at 6:20 AM)
Average temperature yesterday: 73 °F

Past Weeks' High & Low Weather Summary

 TemperatureHumidityPressure
High90 °F (Sep 1, 4:50 PM)100% (Aug 19, 4:50 AM)30.24 "Hg (Aug 19, 4:50 AM)
Low50 °F (Aug 22, 6:20 AM)25% (Sep 1, 5:20 PM)29.77 "Hg (Sep 1, 4:50 PM)
Average67 °F75%30.06 "Hg
* Reported Aug 18 9:20 AM — Sep 2 9:50 AM, Graz, Weather by CustomWeather, © 2015

Note: Actual official high and low records may vary slightly from our data, if they occured in-between our weather recording intervals... More about our weather records

Advertising

Graz weather history for previous 24 hours

 ConditionsComfort  
Time TempWeatherWind HumidityBarometerVisibility
9:50 AM
Wed, Sep 2
72 °FPartly sunny.3 mph61%29.95 "HgN/A
9:20 AM70 °FPartly sunny.5 mph73%29.95 "HgN/A
8:50 AM68 °FPartly sunny.2 mph78%29.95 "HgN/A
8:20 AM66 °FPartly sunny.3 mph83%29.95 "HgN/A
7:50 AM66 °FSunny.3 mph78%29.95 "Hg10 mi
7:20 AM66 °FPassing clouds.5 mph73%29.92 "HgN/A
6:50 AM68 °FPassing clouds.6 mph64%29.92 "HgN/A
6:20 AM66 °FPassing clouds.2 mph78%29.92 "HgN/A
5:50 AM66 °FPartly cloudy.2 mph73%29.89 "HgN/A
5:20 AM68 °FPassing clouds.3 mph64%29.89 "HgN/A
4:50 AM70 °FPassing clouds.5 mph60%29.89 "HgN/A
4:20 AM70 °FPassing clouds.3 mph60%29.89 "HgN/A
3:50 AM70 °FMild.9 mph60%29.89 "HgN/A
3:20 AM72 °FMild.10 mph57%29.86 "HgN/A
2:50 AM75 °FMild.8 mph50%29.86 "HgN/A
2:20 AM75 °FMild.7 mph50%29.83 "HgN/A
1:50 AM73 °FMild.8 mph50%29.83 "HgN/A
1:20 AM63 °FPassing clouds.3 mph77%29.83 "HgN/A
12:50 AM63 °FClear.1 mph73%29.83 "Hg10 mi
11:20 PM
Tue, Sep 1
66 °FClear.1 mph60%29.80 "Hg10 mi
10:50 PM64 °FClear.1 mph64%29.80 "Hg10 mi
10:20 PM66 °FClear.1 mph60%29.80 "Hg10 mi
9:50 PM70 °FClear.2 mph53%29.80 "Hg10 mi
9:20 PM70 °FClear.5 mph50%29.80 "Hg10 mi
8:50 PM77 °FPassing clouds.3 mph36%29.80 "HgN/A
8:20 PM79 °FPassing clouds.7 mph34%29.80 "HgN/A
7:50 PM79 °FPassing clouds.7 mph37%29.77 "HgN/A
7:20 PM82 °FPassing clouds.8 mph35%29.77 "HgN/A
6:50 PM82 °FSunny.8 mph40%29.77 "Hg10 mi
6:20 PM86 °FPassing clouds.6 mph29%29.77 "HgN/A
5:50 PM88 °FPassing clouds.7 mph29%29.77 "HgN/A
5:20 PM88 °FPassing clouds.8 mph25%29.77 "HgN/A
4:50 PM90 °FPassing clouds.7 mph26%29.77 "HgN/A
4:20 PM88 °FPassing clouds.3 mph38%29.80 "HgN/A
3:50 PM88 °FPassing clouds.5 mph40%29.80 "HgN/A
3:20 PM88 °FPassing clouds.6 mph43%29.83 "HgN/A
2:50 PM88 °FPassing clouds.3 mph40%29.83 "HgN/A
2:20 PM86 °FPassing clouds.3 mph46%29.83 "HgN/A
1:50 PM86 °FPassing clouds.6 mph49%29.83 "HgN/A
1:20 PM84 °FPassing clouds.3 mph48%29.86 "HgN/A
12:50 PM84 °FPassing clouds.5 mph51%29.86 "HgN/A
12:20 PM84 °FPassing clouds.3 mph45%29.86 "HgN/A
11:50 AM82 °FPassing clouds.3 mph48%29.86 "HgN/A
11:20 AM81 °FPassing clouds.2 mph51%29.89 "HgN/A
Weather by CustomWeather, © 2015

See weather overviewHow to use our weather pages